Regional & State Weather Roundups


159 
ASUS44 KLUB 161410
RWRLUB
WEST TEXAS WEATHER ROUNDUP
NATIONAL WEATHER SERVICE LUBBOCK TX
900 AM CDT MON JUL 16 2018
NOTE: "FAIR" INDICATES FEW OR NO CLOUDS BELOW 12,000 FEET WITH NO
SIGNIFICANT WEATHER AND/OR OBSTRUCTIONS TO VISIBILITY.
TXZ004-006>008-010-012-014-016-OKZ002-161500-
TEXAS PANHANDLE/OKLAHOMA PANHANDLE
  
CITY           SKY/WX    TMP DP  RH WIND       PRES   REMARKS
AMARILLO       SUNNY     81  62  52 W6        30.15R                  
BORGER         SUNNY     79  65  62 N5        30.12R                  
CANADIAN       SUNNY     77  69  76 SW3       30.07S                  
DALHART        MOSUNNY   74  61  63 N6        30.20R                  
DUMAS          SUNNY     74  62  65 W8        30.16S                  
GUYMON         SUNNY     72  64  76 N7        30.12R                  
HEREFORD       SUNNY     77  62  61 CALM      30.18R                  
PAMPA          SUNNY     83  61  46 W6        30.13S                  
PERRYTON       SUNNY    N/A N/A N/A CALM      30.10S                  
$$
TXZ026-029-035-045-048-161500-
SOUTHERN PANHANDLE/SOUTH PLAINS/ROLLING PLAINS
  
CITY           SKY/WX    TMP DP  RH WIND       PRES   REMARKS
CHILDRESS      CLOUDY    80  68  66 SE5       30.06R                  
SEMINOLE       SUNNY     77  63  61 CALM      30.15R                  
LUBBOCK        MOSUNNY   80  62  54 SW5       30.13R                  
PLAINVIEW      CLOUDY    75  62  62 CALM      30.13S                  
SNYDER         SUNNY     77  64  63 S8        30.10R                  
$$
TXZ052-054-060>062-072-078-127-140-154-169-161500-
PERMIAN BASIN/CONCHO VALLEY/BIG COUNTRY/EDWARDS PLATEAU  
  
CITY           SKY/WX    TMP DP  RH WIND       PRES   REMARKS
ABILENE        SUNNY     80  71  74 S10       30.08R                  
BIG SPRING     SUNNY     80  62  55 S14       30.13R                  
BRADY          SUNNY     79  70  73 S9        30.09R                  
BROWNWOOD      SUNNY     82  72  69 S9        30.07S HAZE             
JUNCTION       MOSUNNY   79  71  76 S10       30.10R                  
MIDLAND        SUNNY     80  62  54 S10       30.12R                  
ODESSA         SUNNY     79  62  56 S9        30.13R                  
SAN ANGELO     SUNNY     80  68  66 S6        30.08R                  
SONORA         SUNNY     77  70  78 S9        30.14R                  
SWEETWATER     SUNNY     82  64  54 SW16      30.12R                  
WINK           SUNNY     79  67  66 E5        30.09R                  
$$
TXZ055-058-074-075-080-082-161500-
FAR WEST/SOUTHWEST MOUNTAINS/TRANS PECOS
  
CITY           SKY/WX    TMP DP  RH WIND       PRES   REMARKS
ALPINE         CLOUDY    72  59  63 SW6       30.25R                  
DRYDEN           N/A     80  68  66 SE13      30.07R                  
EL PASO        MOSUNNY   74  62  66 S8        30.15R                  
FORT STOCKTON  SUNNY     76  63  64 S10       30.11R                  
GUADALUPE PASS PTSUNNY   68  58  70 CALM      30.27R                  
MARFA          MOSUNNY   68  61  78 MISG        N/A                   
PECOS          MOSUNNY   77  68  73 SE5       30.10R                  
PRESIDIO       CLOUDY    77  63  61 CALM      30.12R                  
$$
TXZ014-016-019-021>030-083-161500
TEXAS TECH WEST TEXAS MESONET/TEXAS PANHANDLE/NORTHERN SOUTH PLAINS
  
CITY           SKY/WX    TMP DP  RH WIND       PRES   REMARKS
ABERNATHY 5ENE   N/A     80  63  55 W3        30.17R                  
AMARILLO 9NNE    N/A     80  62  54 NW7       30.15R                  
AMARILLO 7SSE    N/A     80  65  60 SW3       30.17S                  
AMHERST 1NE      N/A     76  63  63 NE3       30.17R                  
BOOTLEG 11WNW    N/A     77  60  56 NW3       30.24S                  
CANADIAN 6E      N/A     78  67  66 W1        30.07S                  
CAPROCK CYN SP   N/A     79  64  59 NE1       30.12R                  
CHILDRESS 2NNE   N/A     82  67  60 E3        30.07R                  
CLARENDON 2WSW   N/A     82  63  53 W5        30.13R                  
CLAUDE 12SW      N/A     81  63  54 W1        30.16R                  
DIMMITT 2NE      N/A     76  63  62 N3        30.18S                  
FLOYDADA 2NNE    N/A     79  65  61 SW7       30.13S                  
FRIONA 2NE       N/A     76  64  67 N7        30.20S                  
GOODLETT 3W      N/A     84  64  51 E6        30.04S                  
HART 3N          N/A     79  63  57 NW5       30.18R                  
HEREFORD 2NW     N/A     77  59  52 S2        30.20S                  
MCLEAN 1E        N/A     84  59  41 W6        30.11R                  
MEMPHIS 1NE      N/A     83  66  56 NE3       30.07S                  
MULESHOE 2SSW    N/A     74  64  71 E5        30.18R                  
OLTON 6S         N/A     76  62  60 N3        30.17R                  
PALO DURO SP     N/A     80  66  60 SE1       30.16S                  
PAMPA 2E         N/A     81  64  57 SW6       30.14R                  
PLAINVIEW 1S     N/A     78  64  62 NW3       30.16R                  
SILVERTON 7ESE   N/A     79  61  53 NW7       30.13R                  
TULIA 2ENE       N/A     80  64  57 NW3       30.17R                  
TURKEY 2WSW      N/A     78  63  59 NW8       30.10S                  
UMBARGER 3NNE    N/A     75  65  72 SW3       30.19R                  
$$
TXZ033>036-039>041-045>048-161500
TEXAS TECH WEST TEXAS MESONET/SOUTH PLAINS  
  
CITY           SKY/WX    TMP DP  RH WIND       PRES   REMARKS
AIKEN 3WSW       N/A     76  64  67 N2        30.17R                  
ANDREWS 2NE      N/A     80  60  48 S7        30.16S                  
ANTON 6SSW       N/A     78  63  59 W5        30.16R                  
BROWNFIELD 2S    N/A     79  63  58 SW3       30.16R                  
DENVR CTY 7WNW   N/A     75  61  61 E2        30.18R                  
GAIL 2ESE        N/A     81  62  52 S8        30.11S                  
LAMESA 2SE       N/A     79  63  58 S8        30.14R                  
LUBBOCK 3WNW     N/A     82  60  47 W3        30.15R                  
ODONNELL 1N      N/A     78  63  60 SW3       30.14R                  
PLAINS 3N        N/A     77  59  54 SW3       30.19R                  
RALLS 1SE        N/A     81  63  54 SW7       30.15R                  
REESE CENTER     N/A     80  61  52 SW5       30.16R                  
SEAGRAVES 1SW    N/A     80  61  51 SE3       30.16R                  
SEMINOLE 2NNE    N/A     78  62  57 SE3       30.15S                  
SLATON 2NE       N/A     80  63  56 SW6       30.14R                  
SNYDER 3E        N/A     80  64  58 S10G17    30.10R                  
SUNDOWN 8SW      N/A     78  60  55 S2        30.18R                  
TAHOKA 3NNE      N/A     77  66  68 S5        30.14S                  
WOLFFORTH 6SSW   N/A     80  62  55 SW3       30.16R                  
$$
TXZ031-032-036>038-042>044-161500-
TEXAS TECH WEST TEXAS MESONET/ROLLING PLAINS 
  
CITY           SKY/WX    TMP DP  RH WIND       PRES   REMARKS
ASPERMONT 3NE    N/A     84  63  49 SW9       30.06R                  
FLUVANNA 3WNW    N/A     81  59  47 S14       30.12S                  
GRAHAM 5SSW      N/A     81  62  53 SW3       30.13R                  
GUTHRIE 10WSW    N/A     83  63  49 SW5       30.07R                  
HASKELL 1NW      N/A     80  64  58 S10       30.05R                  
JAYTON 1SSE      N/A     82  63  51 SW8       30.07R                  
KNOX CITY 3NW    N/A     82  67  62 SW5       30.05S                  
LK A HENRY 1NW   N/A     83  64  52 S6        30.10R                  
NORTHFIELD 1S    N/A     81  65  58 E5        30.08R                  
ODELL 4ENE       N/A     84  69  61 S5        30.05S                  
PADUCAH 10SW     N/A     82  64  53 W3        30.07S                  
POST 1NE         N/A     82  64  53 SW5       30.11R                  
RRING SPRGS 3N   N/A     82  65  56 E1        30.11R                  
SEYMOUR 3NW      N/A     82  65  55 SW6       30.05R                  
SPUR 1W          N/A     80  64  58 SW6       30.09R                  
WEINERT 2NNE     N/A     81  67  63 SW7       30.06R                  
WHITE RVR 6NE    N/A     81  64  56 S3        30.11R                  
$$
TXZ052-054-060>062-072-078-127-140-154-169-161500-
TEXAS TECH WEST TEXAS MESONET/PERMIAN BASIN/
CONCHO VALLEY/BIG COUNTRY/EDWARDS PLATEAU
  
CITY           SKY/WX    TMP DP  RH WIND       PRES   REMARKS
COYANOSA 2N      N/A     78  69  72 E3        30.11R                  
JUNCTION 1SSW    N/A     80  70  71 S7        30.11R                  
MERTZON 3NNE     N/A     81  69  67 S8        30.11S                  
SAN ANGELO 7NW   N/A     80  68  67 S8        30.10S                  
STRLNG CT 4WSW   N/A     80  67  64 S7        30.12S                  
ST LAWRNCE 5SW   N/A     77  66  68 S12       30.12S                  
SWEETWATR 11SW   N/A     80  68  66 SW13      30.13R                  
WALL 1E          N/A     82  70  68 W8        30.11R                  
$$
TXZ055-058-074-075-080-082-161500-
TEXAS TECH WEST TEXAS MESONET/FAR WEST/SOUTHWEST MOUNTAINS/TRANS PECOS
  
CITY           SKY/WX    TMP DP  RH WIND       PRES   REMARKS
GUADLPE MTN NP   N/A     71  55  56 NE7       30.29R                  
$$